Hourly Data Report for July 18, 2021

LONDON CS
ONTARIO
Current Station Operator: ECCC - MSC

43°02'00.000" N
81°09'00.000" W
278.00 m
6144478
71622
WSN

Download Data

Hourly Data (July 2021)
Hourly Data Report for July 18, 2021
TIME
LST
Temp Definition
°C
Dew Point Definition
°C
Rel Hum Definition
%
Precip. Amount Definition
mm

Wind Dir Definition
10's deg

Wind Spd Definition
km/h
Visibility Definition
km
Stn Press Definition
kPa
Hmdx Definition


Wind Chill Definition


Weather Definition


00:00 17.1 14.6 85 0.0       98.77     LegendNANA
01:00 17.6 14.4 82 0.0       98.77     LegendNANA
02:00 17.0 13.7 81 0.0       98.78     LegendNANA
03:00 16.5 13.4 82 0.0       98.79     LegendNANA
04:00 15.0 13.1 88 0.0       98.81     LegendNANA
05:00 14.9 13.1 89 0.0       98.85     LegendNANA
06:00 15.9 13.5 86 0.0       98.87     LegendNANA
07:00 18.2 15.6 85 0.0       98.89     LegendNANA
08:00 20.1 16.7 81 0.0       98.90 25   LegendNANA
09:00 22.0 17.0 73 0.0       98.91 27   LegendNANA
10:00 24.4 18.4 69 0.0       98.91 31   LegendNANA
11:00 26.0 17.6 60 0.0       98.89 32   LegendNANA
12:00 27.6 17.0 53 0.0       98.87 33   LegendNANA
13:00 28.2 15.9 47 0.0       98.84 33   LegendNANA
14:00 28.4 16.1 47 0.0       98.82 33   LegendNANA
15:00 28.1 16.8 50 0.0       98.81 33   LegendNANA
16:00 27.2 14.7 46 0.0       98.79 31   LegendNANA
17:00 26.1 11.2 39 0.0       98.80 28   LegendNANA
18:00 24.3 14.4 54 0.0       98.78 28   LegendNANA
19:00 22.4 15.6 65 0.0       98.78 27   LegendNANA
20:00 20.8 15.2 70 0.0       98.76 25   LegendNANA
21:00 19.7 14.7 73 0.0       98.79     LegendNANA
22:00 18.6 14.1 75 0.0       98.79     LegendNANA
23:00 17.9 14.0 78 0.0       98.79     LegendNANA

Notes on Data Quality.

Legend

  • E = Estimated
  • M = Missing
  • NA = Not Available*
  • [empty] = Indicates an unobserved value
Date modified: